Data supplied by UK-AIR on 30/9/2015
All Data GMT hour ending 
Status: R =Ratified P=Provisional,P*=As supplied
,,Horley,,,,,,,,,,,,,,,,,,,,,,,
Date,time,"Nitric oxide",status,unit,"Nitrogen dioxide",status,unit,"Nitrogen oxides as nitrogen dioxide",status,unit
 
01-01-2014,01:00,1.66307,R,ugm-3,1.95713,R,ugm-3,4.50713,R,ugm-3
01-01-2014,02:00,1.24730,R,ugm-3,2.59463,R,ugm-3,4.50713,R,ugm-3
01-01-2014,03:00,1.87095,R,ugm-3,1.96031,R,ugm-3,4.82906,R,ugm-3
01-01-2014,04:00,1.55913,R,ugm-3,4.37006,R,ugm-3,6.76069,R,ugm-3
01-01-2014,05:00,1.55913,R,ugm-3,4.37006,R,ugm-3,6.76069,R,ugm-3
01-01-2014,06:00,1.87095,R,ugm-3,6.30647,R,ugm-3,9.17522,R,ugm-3
01-01-2014,07:00,2.49460,R,ugm-3,15.49125,R,ugm-3,19.31625,R,ugm-3
01-01-2014,08:00,3.74190,R,ugm-3,20.33944,R,ugm-3,26.07694,R,ugm-3
01-01-2014,09:00,2.80643,R,ugm-3,18.39347,R,ugm-3,22.69659,R,ugm-3
01-01-2014,10:00,2.80643,R,ugm-3,9.21825,R,ugm-3,13.52138,R,ugm-3
01-01-2014,11:00,3.74190,R,ugm-3,10.19841,R,ugm-3,15.93591,R,ugm-3
01-01-2014,12:00,2.80643,R,ugm-3,4.38919,R,ugm-3,8.69231,R,ugm-3
01-01-2014,13:00,2.49460,R,ugm-3,5.83313,R,ugm-3,9.65813,R,ugm-3
01-01-2014,14:00,3.43008,R,ugm-3,12.60816,R,ugm-3,17.86753,R,ugm-3
01-01-2014,15:00,2.49460,R,ugm-3,8.24766,R,ugm-3,12.07266,R,ugm-3
01-01-2014,16:00,2.49460,R,ugm-3,4.86731,R,ugm-3,8.69231,R,ugm-3
01-01-2014,17:00,2.80643,R,ugm-3,8.73534,R,ugm-3,13.03847,R,ugm-3
01-01-2014,18:00,2.80643,R,ugm-3,7.76953,R,ugm-3,12.07266,R,ugm-3
01-01-2014,19:00,3.43008,R,ugm-3,7.77909,R,ugm-3,13.03847,R,ugm-3
01-01-2014,20:00,2.18278,R,ugm-3,8.24288,R,ugm-3,11.58975,R,ugm-3
01-01-2014,21:00,3.11825,R,ugm-3,11.63756,R,ugm-3,16.41881,R,ugm-3
01-01-2014,22:00,2.49460,R,ugm-3,10.17928,R,ugm-3,14.00428,R,ugm-3
01-01-2014,23:00,2.18278,R,ugm-3,6.79416,R,ugm-3,10.14103,R,ugm-3
01-01-2014,24:00,4.05373,R,ugm-3,15.51516,R,ugm-3,21.73078,R,ugm-3
02-01-2014,01:00,2.49460,R,ugm-3,8.42074,R,ugm-3,12.24574,R,ugm-3
02-01-2014,02:00,1.66307,R,ugm-3,4.53964,R,ugm-3,7.08964,R,ugm-3
02-01-2014,03:00,1.87095,R,ugm-3,2.93186,R,ugm-3,5.80061,R,ugm-3
02-01-2014,04:00,2.80643,R,ugm-3,10.19841,R,ugm-3,14.50153,R,ugm-3
02-01-2014,05:00,2.18278,R,ugm-3,0.67958,R,ugm-3,3.86708,R,ugm-3
02-01-2014,06:00,1.55913,R,ugm-3,1.95458,R,ugm-3,3.86708,R,ugm-3
02-01-2014,07:00,2.49460,R,ugm-3,6.80946,R,ugm-3,10.63446,R,ugm-3
02-01-2014,08:00,6.54833,R,ugm-3,26.69659,R,ugm-3,36.73721,R,ugm-3
02-01-2014,09:00,13.40848,R,ugm-3,40.34706,R,ugm-3,60.90643,R,ugm-3
02-01-2014,10:00,13.40848,R,ugm-3,37.44675,R,ugm-3,58.00613,R,ugm-3
02-01-2014,11:00,12.78483,R,ugm-3,31.63562,R,ugm-3,51.23874,R,ugm-3
02-01-2014,12:00,7.79563,R,ugm-3,20.91701,R,ugm-3,32.87014,R,ugm-3
02-01-2014,13:00,9.66658,R,ugm-3,25.29903,R,ugm-3,40.12090,R,ugm-3
02-01-2014,14:00,11.22570,R,ugm-3,28.70902,R,ugm-3,45.92152,R,ugm-3
02-01-2014,15:00,12.47300,R,ugm-3,35.49743,R,ugm-3,54.62243,R,ugm-3
02-01-2014,16:00,4.05373,R,ugm-3,23.75421,R,ugm-3,29.96983,R,ugm-3
02-01-2014,17:00,4.36555,R,ugm-3,29.07669,R,ugm-3,35.77044,R,ugm-3
02-01-2014,18:00,,,,,,,,,
02-01-2014,19:00,4.67738,R,ugm-3,32.46564,R,ugm-3,39.63752,R,ugm-3
02-01-2014,20:00,3.43008,R,ugm-3,18.42646,R,ugm-3,23.68583,R,ugm-3
02-01-2014,21:00,3.11825,R,ugm-3,14.07074,R,ugm-3,18.85199,R,ugm-3
02-01-2014,22:00,2.80643,R,ugm-3,10.19841,R,ugm-3,14.50153,R,ugm-3
02-01-2014,23:00,2.49460,R,ugm-3,8.25961,R,ugm-3,12.08461,R,ugm-3
02-01-2014,24:00,2.49460,R,ugm-3,3.42577,R,ugm-3,7.25077,R,ugm-3
03-01-2014,01:00,2.07883,R,ugm-3,1.96860,R,ugm-3,5.15610,R,ugm-3
03-01-2014,02:00,2.49460,R,ugm-3,1.33110,R,ugm-3,5.15610,R,ugm-3
03-01-2014,03:00,3.74190,R,ugm-3,10.21418,R,ugm-3,15.95168,R,ugm-3
03-01-2014,04:00,5.30103,R,ugm-3,16.52448,R,ugm-3,24.65260,R,ugm-3
03-01-2014,05:00,3.74190,R,ugm-3,16.01480,R,ugm-3,21.75230,R,ugm-3
03-01-2014,06:00,3.43008,R,ugm-3,14.55938,R,ugm-3,19.81876,R,ugm-3
03-01-2014,07:00,3.74190,R,ugm-3,16.49818,R,ugm-3,22.23568,R,ugm-3
03-01-2014,08:00,4.36555,R,ugm-3,16.02532,R,ugm-3,22.71907,R,ugm-3
03-01-2014,09:00,12.47300,R,ugm-3,45.64851,R,ugm-3,64.77351,R,ugm-3
03-01-2014,10:00,10.91388,R,ugm-3,36.43791,R,ugm-3,53.17228,R,ugm-3
03-01-2014,11:00,9.97840,R,ugm-3,27.23783,R,ugm-3,42.53783,R,ugm-3
03-01-2014,12:00,6.86015,R,ugm-3,23.80154,R,ugm-3,34.32029,R,ugm-3
03-01-2014,13:00,5.61285,R,ugm-3,17.97989,R,ugm-3,26.58614,R,ugm-3
03-01-2014,14:00,6.23650,R,ugm-3,23.79102,R,ugm-3,33.35352,R,ugm-3
03-01-2014,15:00,5.61285,R,ugm-3,21.36358,R,ugm-3,29.96983,R,ugm-3
03-01-2014,16:00,5.61285,R,ugm-3,21.36358,R,ugm-3,29.96983,R,ugm-3
03-01-2014,17:00,5.92468,R,ugm-3,28.13622,R,ugm-3,37.22060,R,ugm-3
03-01-2014,18:00,6.23650,R,ugm-3,30.07502,R,ugm-3,39.63752,R,ugm-3
03-01-2014,19:00,4.67738,R,ugm-3,27.63180,R,ugm-3,34.80368,R,ugm-3
03-01-2014,20:00,5.61285,R,ugm-3,23.78050,R,ugm-3,32.38675,R,ugm-3
03-01-2014,21:00,3.43008,R,ugm-3,7.30862,R,ugm-3,12.56799,R,ugm-3
03-01-2014,22:00,3.11825,R,ugm-3,12.62059,R,ugm-3,17.40184,R,ugm-3
03-01-2014,23:00,6.54833,R,ugm-3,23.79628,R,ugm-3,33.83691,R,ugm-3
03-01-2014,24:00,5.61285,R,ugm-3,17.49651,R,ugm-3,26.10276,R,ugm-3
04-01-2014,01:00,3.74190,R,ugm-3,13.59788,R,ugm-3,19.33538,R,ugm-3
04-01-2014,02:00,1.66307,R,ugm-3,3.25061,R,ugm-3,5.80061,R,ugm-3
04-01-2014,03:00,1.55913,R,ugm-3,3.40999,R,ugm-3,5.80061,R,ugm-3
04-01-2014,04:00,1.55913,R,ugm-3,2.44322,R,ugm-3,4.83384,R,ugm-3
04-01-2014,05:00,1.87095,R,ugm-3,5.34878,R,ugm-3,8.21753,R,ugm-3
04-01-2014,06:00,2.49460,R,ugm-3,8.25961,R,ugm-3,12.08461,R,ugm-3
04-01-2014,07:00,4.05373,R,ugm-3,18.92036,R,ugm-3,25.13599,R,ugm-3
04-01-2014,08:00,2.49460,R,ugm-3,14.06022,R,ugm-3,17.88522,R,ugm-3
04-01-2014,09:00,2.80643,R,ugm-3,14.06548,R,ugm-3,18.36861,R,ugm-3
04-01-2014,10:00,5.30103,R,ugm-3,25.70878,R,ugm-3,33.83691,R,ugm-3
04-01-2014,11:00,5.30103,R,ugm-3,20.87494,R,ugm-3,29.00306,R,ugm-3
04-01-2014,12:00,5.92468,R,ugm-3,25.71930,R,ugm-3,34.80368,R,ugm-3
04-01-2014,13:00,4.36555,R,ugm-3,17.95885,R,ugm-3,24.65260,R,ugm-3
04-01-2014,14:00,9.04293,R,ugm-3,33.98943,R,ugm-3,47.85505,R,ugm-3
04-01-2014,15:00,9.04293,R,ugm-3,43.65712,R,ugm-3,57.52274,R,ugm-3
04-01-2014,16:00,2.18278,R,ugm-3,20.33896,R,ugm-3,23.68583,R,ugm-3
04-01-2014,17:00,2.49460,R,ugm-3,14.54361,R,ugm-3,18.36861,R,ugm-3
04-01-2014,18:00,2.49460,R,ugm-3,24.21129,R,ugm-3,28.03629,R,ugm-3
04-01-2014,19:00,4.98920,R,ugm-3,28.12044,R,ugm-3,35.77044,R,ugm-3
04-01-2014,20:00,5.92468,R,ugm-3,27.65284,R,ugm-3,36.73721,R,ugm-3
04-01-2014,21:00,7.17198,R,ugm-3,34.92464,R,ugm-3,45.92152,R,ugm-3
04-01-2014,22:00,25.88148,R,ugm-3,55.05896,R,ugm-3,94.74334,R,ugm-3
04-01-2014,23:00,14.65578,R,ugm-3,38.43456,R,ugm-3,60.90643,R,ugm-3
04-01-2014,24:00,29.31155,R,ugm-3,55.11682,R,ugm-3,100.06057,R,ugm-3
05-01-2014,01:00,22.45140,R,ugm-3,50.08965,R,ugm-3,84.51465,R,ugm-3
05-01-2014,02:00,7.89957,R,ugm-3,44.01555,R,ugm-3,56.12805,R,ugm-3
05-01-2014,03:00,8.41928,R,ugm-3,36.44460,R,ugm-3,49.35398,R,ugm-3
05-01-2014,04:00,4.05373,R,ugm-3,33.46110,R,ugm-3,39.67673,R,ugm-3
05-01-2014,05:00,15.59125,R,ugm-3,44.80223,R,ugm-3,68.70848,R,ugm-3
05-01-2014,06:00,12.47300,R,ugm-3,39.90623,R,ugm-3,59.03123,R,ugm-3
05-01-2014,07:00,34.92440,R,ugm-3,33.54525,R,ugm-3,87.09525,R,ugm-3
05-01-2014,08:00,74.52618,R,ugm-3,38.62868,R,ugm-3,152.90055,R,ugm-3
05-01-2014,09:00,112.56883,R,ugm-3,51.42521,R,ugm-3,224.02834,R,ugm-3
05-01-2014,10:00,143.12768,R,ugm-3,58.27770,R,ugm-3,277.73708,R,ugm-3
05-01-2014,11:00,35.85988,R,ugm-3,62.11035,R,ugm-3,117.09473,R,ugm-3
05-01-2014,12:00,15.27943,R,ugm-3,41.89331,R,ugm-3,65.32144,R,ugm-3
05-01-2014,13:00,13.09665,R,ugm-3,52.01426,R,ugm-3,72.09551,R,ugm-3
05-01-2014,14:00,6.86015,R,ugm-3,37.86750,R,ugm-3,48.38625,R,ugm-3
05-01-2014,15:00,6.54833,R,ugm-3,33.99086,R,ugm-3,44.03149,R,ugm-3
05-01-2014,16:00,3.43008,R,ugm-3,21.83693,R,ugm-3,27.09630,R,ugm-3
05-01-2014,17:00,2.18278,R,ugm-3,12.62059,R,ugm-3,15.96746,R,ugm-3
05-01-2014,18:00,2.49460,R,ugm-3,7.30384,R,ugm-3,11.12884,R,ugm-3
05-01-2014,19:00,3.11825,R,ugm-3,12.15394,R,ugm-3,16.93519,R,ugm-3
05-01-2014,20:00,3.11825,R,ugm-3,15.54098,R,ugm-3,20.32223,R,ugm-3
05-01-2014,21:00,3.11825,R,ugm-3,12.63780,R,ugm-3,17.41905,R,ugm-3
05-01-2014,22:00,2.80643,R,ugm-3,8.76116,R,ugm-3,13.06429,R,ugm-3
05-01-2014,23:00,2.18278,R,ugm-3,5.36265,R,ugm-3,8.70953,R,ugm-3
05-01-2014,24:00,2.18278,R,ugm-3,4.87879,R,ugm-3,8.22566,R,ugm-3
06-01-2014,01:00,2.07883,R,ugm-3,3.26400,R,ugm-3,6.45150,R,ugm-3
06-01-2014,02:00,1.24730,R,ugm-3,1.31325,R,ugm-3,3.22575,R,ugm-3
06-01-2014,03:00,3.74190,R,ugm-3,5.87520,R,ugm-3,11.61270,R,ugm-3
06-01-2014,04:00,4.67738,R,ugm-3,14.60194,R,ugm-3,21.77381,R,ugm-3
06-01-2014,05:00,4.05373,R,ugm-3,14.10660,R,ugm-3,20.32223,R,ugm-3
06-01-2014,06:00,4.67738,R,ugm-3,17.98898,R,ugm-3,25.16085,R,ugm-3
06-01-2014,07:00,4.98920,R,ugm-3,17.51085,R,ugm-3,25.16085,R,ugm-3
06-01-2014,08:00,2.80643,R,ugm-3,17.47069,R,ugm-3,21.77381,R,ugm-3
06-01-2014,09:00,5.92468,R,ugm-3,26.23759,R,ugm-3,35.32196,R,ugm-3
06-01-2014,10:00,8.10745,R,ugm-3,28.69706,R,ugm-3,41.12831,R,ugm-3
06-01-2014,11:00,7.79563,R,ugm-3,31.59450,R,ugm-3,43.54763,R,ugm-3
06-01-2014,12:00,7.17198,R,ugm-3,21.90578,R,ugm-3,32.90265,R,ugm-3
06-01-2014,13:00,9.04293,R,ugm-3,21.94020,R,ugm-3,35.80583,R,ugm-3
06-01-2014,14:00,6.86015,R,ugm-3,19.48073,R,ugm-3,29.99948,R,ugm-3
06-01-2014,15:00,6.86015,R,ugm-3,18.51300,R,ugm-3,29.03175,R,ugm-3
06-01-2014,16:00,4.98920,R,ugm-3,17.51085,R,ugm-3,25.16085,R,ugm-3
06-01-2014,17:00,4.98920,R,ugm-3,22.83334,R,ugm-3,30.48334,R,ugm-3
06-01-2014,18:00,6.23650,R,ugm-3,25.27560,R,ugm-3,34.83810,R,ugm-3
06-01-2014,19:00,6.23650,R,ugm-3,22.85629,R,ugm-3,32.41879,R,ugm-3
06-01-2014,20:00,4.98920,R,ugm-3,17.99471,R,ugm-3,25.64471,R,ugm-3
06-01-2014,21:00,5.61285,R,ugm-3,18.49005,R,ugm-3,27.09630,R,ugm-3
06-01-2014,22:00,6.54833,R,ugm-3,17.05568,R,ugm-3,27.09630,R,ugm-3
06-01-2014,23:00,6.23650,R,ugm-3,17.53380,R,ugm-3,27.09630,R,ugm-3
06-01-2014,24:00,6.23650,R,ugm-3,16.56608,R,ugm-3,26.12858,R,ugm-3
07-01-2014,01:00,4.99918,R,ugm-3,14.93726,R,ugm-3,22.60256,R,ugm-3
07-01-2014,02:00,4.58258,R,ugm-3,13.63868,R,ugm-3,20.66520,R,ugm-3
07-01-2014,03:00,3.74938,R,ugm-3,8.78124,R,ugm-3,14.53022,R,ugm-3
07-01-2014,04:00,3.74938,R,ugm-3,9.74993,R,ugm-3,15.49890,R,ugm-3
07-01-2014,05:00,2.18714,R,ugm-3,3.42720,R,ugm-3,6.78077,R,ugm-3
07-01-2014,06:00,2.49959,R,ugm-3,2.46378,R,ugm-3,6.29643,R,ugm-3
07-01-2014,07:00,3.43694,R,ugm-3,9.26033,R,ugm-3,14.53022,R,ugm-3
07-01-2014,08:00,4.37428,R,ugm-3,19.44726,R,ugm-3,26.15439,R,ugm-3
07-01-2014,09:00,4.68673,R,ugm-3,20.42120,R,ugm-3,27.60742,R,ugm-3
07-01-2014,10:00,4.99918,R,ugm-3,17.03607,R,ugm-3,24.70137,R,ugm-3
07-01-2014,11:00,4.37428,R,ugm-3,14.11951,R,ugm-3,20.82665,R,ugm-3
07-01-2014,12:00,,,,,,,,,
07-01-2014,13:00,10.62325,R,ugm-3,24.39585,R,ugm-3,40.68461,R,ugm-3
07-01-2014,14:00,9.68591,R,ugm-3,25.34875,R,ugm-3,40.20027,R,ugm-3
07-01-2014,15:00,8.43611,R,ugm-3,21.93733,R,ugm-3,34.87253,R,ugm-3
07-01-2014,16:00,9.99836,R,ugm-3,29.22874,R,ugm-3,44.55934,R,ugm-3
07-01-2014,17:00,9.06101,R,ugm-3,25.33823,R,ugm-3,39.23159,R,ugm-3
07-01-2014,18:00,8.74856,R,ugm-3,29.69204,R,ugm-3,43.10632,R,ugm-3
07-01-2014,19:00,5.31163,R,ugm-3,24.30644,R,ugm-3,32.45082,R,ugm-3
07-01-2014,20:00,4.99918,R,ugm-3,23.33250,R,ugm-3,30.99780,R,ugm-3
07-01-2014,21:00,4.06183,R,ugm-3,19.92634,R,ugm-3,26.15439,R,ugm-3
07-01-2014,22:00,2.18714,R,ugm-3,13.11401,R,ugm-3,16.46758,R,ugm-3
07-01-2014,23:00,5.62408,R,ugm-3,20.43698,R,ugm-3,29.06044,R,ugm-3
07-01-2014,24:00,7.18632,R,ugm-3,22.88498,R,ugm-3,33.90384,R,ugm-3
08-01-2014,01:00,10.41496,R,ugm-3,36.33941,R,ugm-3,52.30879,R,ugm-3
08-01-2014,02:00,5.41578,R,ugm-3,18.17321,R,ugm-3,26.47729,R,ugm-3
08-01-2014,03:00,10.93570,R,ugm-3,32.63490,R,ugm-3,49.40274,R,ugm-3
08-01-2014,04:00,10.31081,R,ugm-3,35.04608,R,ugm-3,50.85577,R,ugm-3
08-01-2014,05:00,6.87387,R,ugm-3,27.23878,R,ugm-3,37.77857,R,ugm-3
08-01-2014,06:00,4.68673,R,ugm-3,24.29592,R,ugm-3,31.48214,R,ugm-3
08-01-2014,07:00,18.74692,R,ugm-3,44.87490,R,ugm-3,73.61978,R,ugm-3
08-01-2014,08:00,24.68344,R,ugm-3,57.56768,R,ugm-3,95.41510,R,ugm-3
08-01-2014,09:00,13.12284,R,ugm-3,48.17062,R,ugm-3,68.29203,R,ugm-3
08-01-2014,10:00,16.55978,R,ugm-3,45.32243,R,ugm-3,70.71373,R,ugm-3
08-01-2014,11:00,13.74774,R,ugm-3,35.10394,R,ugm-3,56.18351,R,ugm-3
08-01-2014,12:00,11.87305,R,ugm-3,34.10370,R,ugm-3,52.30879,R,ugm-3
08-01-2014,13:00,9.37346,R,ugm-3,27.76520,R,ugm-3,42.13763,R,ugm-3
08-01-2014,14:00,6.87387,R,ugm-3,26.75444,R,ugm-3,37.29423,R,ugm-3
08-01-2014,15:00,5.31163,R,ugm-3,27.21248,R,ugm-3,35.35687,R,ugm-3
08-01-2014,16:00,4.37428,R,ugm-3,28.64973,R,ugm-3,35.35687,R,ugm-3
08-01-2014,17:00,4.37428,R,ugm-3,35.43050,R,ugm-3,42.13763,R,ugm-3
08-01-2014,18:00,2.49959,R,ugm-3,21.83740,R,ugm-3,25.67005,R,ugm-3
08-01-2014,19:00,2.18714,R,ugm-3,19.41044,R,ugm-3,22.76401,R,ugm-3
08-01-2014,20:00,2.81204,R,ugm-3,16.99926,R,ugm-3,21.31099,R,ugm-3
08-01-2014,21:00,4.06183,R,ugm-3,18.95766,R,ugm-3,25.18571,R,ugm-3
08-01-2014,22:00,3.12449,R,ugm-3,13.61413,R,ugm-3,18.40494,R,ugm-3
08-01-2014,23:00,2.49959,R,ugm-3,11.18191,R,ugm-3,15.01456,R,ugm-3
08-01-2014,24:00,2.49959,R,ugm-3,6.33850,R,ugm-3,10.17115,R,ugm-3
09-01-2014,01:00,2.08091,R,ugm-3,3.91298,R,ugm-3,7.10366,R,ugm-3
09-01-2014,02:00,2.49710,R,ugm-3,2.62905,R,ugm-3,6.45788,R,ugm-3
09-01-2014,03:00,2.49710,R,ugm-3,2.95194,R,ugm-3,6.78077,R,ugm-3
09-01-2014,04:00,5.30633,R,ugm-3,9.30001,R,ugm-3,17.43626,R,ugm-3
09-01-2014,05:00,3.74564,R,ugm-3,10.72434,R,ugm-3,16.46758,R,ugm-3
09-01-2014,06:00,5.61846,R,ugm-3,16.08652,R,ugm-3,24.70137,R,ugm-3
09-01-2014,07:00,4.36992,R,ugm-3,14.12620,R,ugm-3,20.82665,R,ugm-3
09-01-2014,08:00,3.12137,R,ugm-3,10.22853,R,ugm-3,15.01456,R,ugm-3
09-01-2014,09:00,2.49710,R,ugm-3,7.79535,R,ugm-3,11.62418,R,ugm-3
09-01-2014,10:00,2.18496,R,ugm-3,7.30527,R,ugm-3,10.65549,R,ugm-3
09-01-2014,11:00,2.49710,R,ugm-3,8.27969,R,ugm-3,12.10852,R,ugm-3
09-01-2014,12:00,3.43351,R,ugm-3,6.35954,R,ugm-3,11.62418,R,ugm-3
09-01-2014,13:00,3.43351,R,ugm-3,6.84388,R,ugm-3,12.10852,R,ugm-3
09-01-2014,14:00,3.43351,R,ugm-3,7.32822,R,ugm-3,12.59286,R,ugm-3
09-01-2014,15:00,2.80923,R,ugm-3,9.25411,R,ugm-3,13.56154,R,ugm-3
09-01-2014,16:00,2.80923,R,ugm-3,10.22279,R,ugm-3,14.53022,R,ugm-3
09-01-2014,17:00,3.43351,R,ugm-3,21.37410,R,ugm-3,26.63873,R,ugm-3
09-01-2014,18:00,3.74564,R,ugm-3,22.83286,R,ugm-3,28.57610,R,ugm-3
09-01-2014,19:00,14.04616,R,ugm-3,47.72357,R,ugm-3,69.26071,R,ugm-3
09-01-2014,20:00,12.79761,R,ugm-3,42.37287,R,ugm-3,61.99560,R,ugm-3
09-01-2014,21:00,19.66462,R,ugm-3,51.21723,R,ugm-3,81.36923,R,ugm-3
09-01-2014,22:00,8.73983,R,ugm-3,39.87658,R,ugm-3,53.27747,R,ugm-3
09-01-2014,23:00,12.79761,R,ugm-3,43.34155,R,ugm-3,62.96428,R,ugm-3
09-01-2014,24:00,3.43351,R,ugm-3,26.21751,R,ugm-3,31.48214,R,ugm-3
10-01-2014,01:00,9.98838,R,ugm-3,41.57010,R,ugm-3,56.88540,R,ugm-3
10-01-2014,02:00,2.49710,R,ugm-3,19.44248,R,ugm-3,23.27130,R,ugm-3
10-01-2014,03:00,21.84958,R,ugm-3,41.64469,R,ugm-3,75.14691,R,ugm-3
10-01-2014,04:00,19.66462,R,ugm-3,40.14672,R,ugm-3,70.29872,R,ugm-3
10-01-2014,05:00,4.05778,R,ugm-3,31.59402,R,ugm-3,37.81586,R,ugm-3
10-01-2014,06:00,20.60103,R,ugm-3,43.07428,R,ugm-3,74.66209,R,ugm-3
10-01-2014,07:00,42.13847,R,ugm-3,42.04870,R,ugm-3,106.66013,R,ugm-3
10-01-2014,08:00,137.34020,R,ugm-3,50.24711,R,ugm-3,260.83249,R,ugm-3
10-01-2014,09:00,204.13748,R,ugm-3,63.21291,R,ugm-3,376.21935,R,ugm-3
10-01-2014,10:00,71.79147,R,ugm-3,41.18473,R,ugm-3,151.26345,R,ugm-3
10-01-2014,11:00,68.35797,R,ugm-3,43.05563,R,ugm-3,147.86972,R,ugm-3
10-01-2014,12:00,28.09231,R,ugm-3,46.13237,R,ugm-3,89.20665,R,ugm-3
10-01-2014,13:00,10.30052,R,ugm-3,35.11207,R,ugm-3,50.90597,R,ugm-3
10-01-2014,14:00,14.35829,R,ugm-3,40.52588,R,ugm-3,62.54162,R,ugm-3
10-01-2014,15:00,13.73402,R,ugm-3,43.42236,R,ugm-3,64.48089,R,ugm-3
10-01-2014,16:00,6.24274,R,ugm-3,31.15271,R,ugm-3,40.72478,R,ugm-3
10-01-2014,17:00,5.93060,R,ugm-3,34.54023,R,ugm-3,43.63369,R,ugm-3
10-01-2014,18:00,14.67043,R,ugm-3,48.77401,R,ugm-3,71.26836,R,ugm-3
10-01-2014,19:00,7.17915,R,ugm-3,40.86773,R,ugm-3,51.87561,R,ugm-3
10-01-2014,20:00,4.36992,R,ugm-3,34.02433,R,ugm-3,40.72478,R,ugm-3
10-01-2014,21:00,5.93060,R,ugm-3,29.69204,R,ugm-3,38.78550,R,ugm-3
10-01-2014,22:00,3.74564,R,ugm-3,18.98252,R,ugm-3,24.72576,R,ugm-3
10-01-2014,23:00,7.49128,R,ugm-3,29.23830,R,ugm-3,40.72478,R,ugm-3
10-01-2014,24:00,3.74564,R,ugm-3,19.46734,R,ugm-3,25.21058,R,ugm-3
11-01-2014,01:00,2.08091,R,ugm-3,6.50569,R,ugm-3,9.69638,R,ugm-3
11-01-2014,02:00,1.66473,R,ugm-3,6.49740,R,ugm-3,9.04995,R,ugm-3
11-01-2014,03:00,3.74564,R,ugm-3,14.61915,R,ugm-3,20.36239,R,ugm-3
11-01-2014,04:00,4.99419,R,ugm-3,14.15919,R,ugm-3,21.81684,R,ugm-3
11-01-2014,05:00,10.92479,R,ugm-3,28.82185,R,ugm-3,45.57296,R,ugm-3
11-01-2014,06:00,12.17334,R,ugm-3,29.81635,R,ugm-3,48.48188,R,ugm-3
11-01-2014,07:00,1.56068,R,ugm-3,5.84890,R,ugm-3,8.24192,R,ugm-3
11-01-2014,08:00,2.18496,R,ugm-3,8.77025,R,ugm-3,12.12047,R,ugm-3
11-01-2014,09:00,2.18496,R,ugm-3,5.37652,R,ugm-3,8.72674,R,ugm-3
11-01-2014,10:00,3.43351,R,ugm-3,5.40138,R,ugm-3,10.66601,R,ugm-3
11-01-2014,11:00,3.43351,R,ugm-3,7.34065,R,ugm-3,12.60529,R,ugm-3
11-01-2014,12:00,3.74564,R,ugm-3,8.80133,R,ugm-3,14.54456,R,ugm-3
11-01-2014,13:00,3.74564,R,ugm-3,8.31651,R,ugm-3,14.05974,R,ugm-3
11-01-2014,14:00,2.80923,R,ugm-3,8.29786,R,ugm-3,12.60529,R,ugm-3
11-01-2014,15:00,2.80923,R,ugm-3,7.81304,R,ugm-3,12.12047,R,ugm-3
11-01-2014,16:00,2.80923,R,ugm-3,13.14605,R,ugm-3,17.45348,R,ugm-3
11-01-2014,17:00,11.23693,R,ugm-3,50.16009,R,ugm-3,67.38981,R,ugm-3
11-01-2014,18:00,56.80890,R,ugm-3,63.67286,R,ugm-3,150.77863,R,ugm-3
11-01-2014,19:00,103.62943,R,ugm-3,64.12039,R,ugm-3,223.01663,R,ugm-3
11-01-2014,20:00,124.54259,R,ugm-3,64.53683,R,ugm-3,255.49948,R,ugm-3
11-01-2014,21:00,171.67525,R,ugm-3,69.83876,R,ugm-3,333.07048,R,ugm-3
11-01-2014,22:00,196.95834,R,ugm-3,63.55477,R,ugm-3,365.55334,R,ugm-3
11-01-2014,23:00,198.51902,R,ugm-3,53.40465,R,ugm-3,357.79624,R,ugm-3
11-01-2014,24:00,160.75047,R,ugm-3,47.80437,R,ugm-3,294.28498,R,ugm-3
12-01-2014,01:00,90.22137,R,ugm-3,41.36865,R,ugm-3,179.70615,R,ugm-3
12-01-2014,02:00,32.42980,R,ugm-3,33.66383,R,ugm-3,83.38883,R,ugm-3
12-01-2014,03:00,26.81695,R,ugm-3,26.75588,R,ugm-3,67.87463,R,ugm-3
12-01-2014,04:00,9.97840,R,ugm-3,30.27296,R,ugm-3,45.57296,R,ugm-3
12-01-2014,05:00,8.41928,R,ugm-3,27.33058,R,ugm-3,40.23996,R,ugm-3
12-01-2014,06:00,4.67738,R,ugm-3,30.15917,R,ugm-3,37.33104,R,ugm-3
12-01-2014,07:00,5.92468,R,ugm-3,31.15558,R,ugm-3,40.23996,R,ugm-3
12-01-2014,08:00,12.78483,R,ugm-3,35.66621,R,ugm-3,55.26934,R,ugm-3
12-01-2014,09:00,11.22570,R,ugm-3,30.78456,R,ugm-3,47.99706,R,ugm-3
12-01-2014,10:00,17.15038,R,ugm-3,34.79029,R,ugm-3,61.08716,R,ugm-3
12-01-2014,11:00,5.92468,R,ugm-3,15.15656,R,ugm-3,24.24094,R,ugm-3
12-01-2014,12:00,4.05373,R,ugm-3,13.66194,R,ugm-3,19.87757,R,ugm-3
12-01-2014,13:00,4.36555,R,ugm-3,19.97128,R,ugm-3,26.66503,R,ugm-3
12-01-2014,14:00,4.05373,R,ugm-3,22.38868,R,ugm-3,28.60431,R,ugm-3
12-01-2014,15:00,4.36555,R,ugm-3,24.81947,R,ugm-3,31.51322,R,ugm-3
12-01-2014,16:00,3.43008,R,ugm-3,23.82975,R,ugm-3,29.08913,R,ugm-3
12-01-2014,17:00,3.11825,R,ugm-3,21.88378,R,ugm-3,26.66503,R,ugm-3
12-01-2014,18:00,3.43008,R,ugm-3,20.92084,R,ugm-3,26.18021,R,ugm-3
12-01-2014,19:00,3.43008,R,ugm-3,19.95120,R,ugm-3,25.21058,R,ugm-3
12-01-2014,20:00,3.43008,R,ugm-3,15.58783,R,ugm-3,20.84721,R,ugm-3
12-01-2014,21:00,3.11825,R,ugm-3,15.09632,R,ugm-3,19.87757,R,ugm-3
12-01-2014,22:00,2.18278,R,ugm-3,13.62178,R,ugm-3,16.96866,R,ugm-3
12-01-2014,23:00,2.18278,R,ugm-3,13.13696,R,ugm-3,16.48384,R,ugm-3
12-01-2014,24:00,2.49460,R,ugm-3,9.74993,R,ugm-3,13.57493,R,ugm-3
13-01-2014,01:00,1.66307,R,ugm-3,,,,,,
13-01-2014,02:00,1.66307,R,ugm-3,5.86181,R,ugm-3,8.41181,R,ugm-3
13-01-2014,03:00,1.87095,R,ugm-3,10.23427,R,ugm-3,13.10302,R,ugm-3
13-01-2014,04:00,1.87095,R,ugm-3,11.20486,R,ugm-3,14.07361,R,ugm-3
13-01-2014,05:00,3.11825,R,ugm-3,19.96889,R,ugm-3,24.75014,R,ugm-3
13-01-2014,06:00,4.98920,R,ugm-3,35.54142,R,ugm-3,43.19142,R,ugm-3
13-01-2014,07:00,5.92468,R,ugm-3,53.51892,R,ugm-3,62.60330,R,ugm-3
13-01-2014,08:00,14.65578,R,ugm-3,76.04339,R,ugm-3,98.51527,R,ugm-3
13-01-2014,09:00,29.93520,R,ugm-3,76.88011,R,ugm-3,122.78011,R,ugm-3
13-01-2014,10:00,18.39768,R,ugm-3,65.93822,R,ugm-3,94.14759,R,ugm-3
13-01-2014,11:00,15.90308,R,ugm-3,50.83664,R,ugm-3,75.22102,R,ugm-3
13-01-2014,12:00,8.10745,R,ugm-3,32.70136,R,ugm-3,45.13261,R,ugm-3
13-01-2014,13:00,11.22570,R,ugm-3,36.17016,R,ugm-3,53.38266,R,ugm-3
13-01-2014,14:00,8.41928,R,ugm-3,30.28205,R,ugm-3,43.19142,R,ugm-3
13-01-2014,15:00,5.30103,R,ugm-3,16.62202,R,ugm-3,24.75014,R,ugm-3
13-01-2014,16:00,2.80643,R,ugm-3,18.02053,R,ugm-3,22.32366,R,ugm-3
13-01-2014,17:00,4.05373,R,ugm-3,32.60813,R,ugm-3,38.82375,R,ugm-3
13-01-2014,18:00,,,,,,,,,
13-01-2014,19:00,2.80643,R,ugm-3,21.41761,R,ugm-3,25.72073,R,ugm-3
13-01-2014,20:00,2.80643,R,ugm-3,20.93231,R,ugm-3,25.23544,R,ugm-3
13-01-2014,21:00,2.80643,R,ugm-3,25.78528,R,ugm-3,30.08841,R,ugm-3
13-01-2014,22:00,4.05373,R,ugm-3,27.75516,R,ugm-3,33.97078,R,ugm-3
13-01-2014,23:00,5.92468,R,ugm-3,29.73938,R,ugm-3,38.82375,R,ugm-3
13-01-2014,24:00,3.43008,R,ugm-3,15.60839,R,ugm-3,20.86777,R,ugm-3
14-01-2014,01:00,4.15767,R,ugm-3,18.86044,R,ugm-3,25.23544,R,ugm-3
14-01-2014,02:00,4.15767,R,ugm-3,25.33106,R,ugm-3,31.70606,R,ugm-3
14-01-2014,03:00,1.55913,R,ugm-3,12.16828,R,ugm-3,14.55891,R,ugm-3
14-01-2014,04:00,1.87095,R,ugm-3,12.17545,R,ugm-3,15.04420,R,ugm-3
14-01-2014,05:00,1.87095,R,ugm-3,15.57253,R,ugm-3,18.44128,R,ugm-3
14-01-2014,06:00,3.74190,R,ugm-3,27.26269,R,ugm-3,33.00019,R,ugm-3
14-01-2014,07:00,17.77403,R,ugm-3,46.02670,R,ugm-3,73.27983,R,ugm-3
14-01-2014,08:00,33.67710,R,ugm-3,57.55430,R,ugm-3,109.19180,R,ugm-3
14-01-2014,09:00,17.77403,R,ugm-3,43.11492,R,ugm-3,70.36805,R,ugm-3
14-01-2014,10:00,12.47300,R,ugm-3,35.71355,R,ugm-3,54.83855,R,ugm-3
14-01-2014,11:00,5.61285,R,ugm-3,15.17330,R,ugm-3,23.77955,R,ugm-3
14-01-2014,12:00,6.86015,R,ugm-3,15.20198,R,ugm-3,25.72073,R,ugm-3
14-01-2014,13:00,5.30103,R,ugm-3,13.71023,R,ugm-3,21.83836,R,ugm-3
14-01-2014,14:00,4.98920,R,ugm-3,13.70306,R,ugm-3,21.35306,R,ugm-3
14-01-2014,15:00,4.36555,R,ugm-3,18.05639,R,ugm-3,24.75014,R,ugm-3
14-01-2014,16:00,4.36555,R,ugm-3,24.36525,R,ugm-3,31.05900,R,ugm-3
14-01-2014,17:00,10.29023,R,ugm-3,48.76636,R,ugm-3,64.54448,R,ugm-3
14-01-2014,18:00,23.69870,R,ugm-3,68.48663,R,ugm-3,104.82413,R,ugm-3
14-01-2014,19:00,18.08585,R,ugm-3,71.26931,R,ugm-3,99.00056,R,ugm-3
14-01-2014,20:00,12.47300,R,ugm-3,70.16963,R,ugm-3,89.29463,R,ugm-3
14-01-2014,21:00,5.92468,R,ugm-3,53.03363,R,ugm-3,62.11800,R,ugm-3
14-01-2014,22:00,3.74190,R,ugm-3,38.90981,R,ugm-3,44.64731,R,ugm-3
14-01-2014,23:00,3.74190,R,ugm-3,26.29209,R,ugm-3,32.02959,R,ugm-3
14-01-2014,24:00,2.49460,R,ugm-3,7.33683,R,ugm-3,11.16183,R,ugm-3
15-01-2014,01:00,1.66307,R,ugm-3,5.86181,R,ugm-3,8.41181,R,ugm-3
15-01-2014,02:00,1.66307,R,ugm-3,4.56769,R,ugm-3,7.11769,R,ugm-3
15-01-2014,03:00,0.93548,R,ugm-3,6.33038,R,ugm-3,7.76475,R,ugm-3
15-01-2014,04:00,2.18278,R,ugm-3,7.81495,R,ugm-3,11.16183,R,ugm-3
15-01-2014,05:00,1.87095,R,ugm-3,16.54313,R,ugm-3,19.41188,R,ugm-3
15-01-2014,06:00,3.74190,R,ugm-3,19.98323,R,ugm-3,25.72073,R,ugm-3
15-01-2014,07:00,4.98920,R,ugm-3,32.14434,R,ugm-3,39.79434,R,ugm-3
15-01-2014,08:00,6.54833,R,ugm-3,45.76852,R,ugm-3,55.80914,R,ugm-3
15-01-2014,09:00,5.92468,R,ugm-3,43.81298,R,ugm-3,52.89736,R,ugm-3
15-01-2014,10:00,9.66658,R,ugm-3,42.92845,R,ugm-3,57.75033,R,ugm-3
15-01-2014,11:00,5.92468,R,ugm-3,33.62175,R,ugm-3,42.70613,R,ugm-3
15-01-2014,12:00,4.98920,R,ugm-3,26.80608,R,ugm-3,34.45608,R,ugm-3
15-01-2014,13:00,5.61285,R,ugm-3,30.70280,R,ugm-3,39.30905,R,ugm-3
15-01-2014,14:00,4.67738,R,ugm-3,20.97534,R,ugm-3,28.14722,R,ugm-3
15-01-2014,15:00,4.05373,R,ugm-3,20.47570,R,ugm-3,26.69133,R,ugm-3
15-01-2014,16:00,3.74190,R,ugm-3,19.01264,R,ugm-3,24.75014,R,ugm-3
15-01-2014,17:00,2.80643,R,ugm-3,17.53523,R,ugm-3,21.83836,R,ugm-3
15-01-2014,18:00,3.11825,R,ugm-3,25.30716,R,ugm-3,30.08841,R,ugm-3
15-01-2014,19:00,2.49460,R,ugm-3,22.86633,R,ugm-3,26.69133,R,ugm-3
15-01-2014,20:00,2.49460,R,ugm-3,14.61628,R,ugm-3,18.44128,R,ugm-3